SCP
0 0 0 0 0 0 0 0 0 0 0 0 0 0 0 0 0 0 0 0 0 0 0 0 0 0 0 0 0 0 0 0 0 0 0 0 0 0 0 0 0 0 0
0 0 0 0 0 0 0 0 0 0 0 0 0 0 0 0 0 0 0 0 0 0 0 0 0 0 0 0 0 0 0 0 0 0 0 0 0 0 0 0 0 0 0
0 0 0 0 0 0 0 0 0 0 0 0 0 0 0 0 0 0 0 0 0 0 0 0 0 0 0 0 0 0 0 0 0 0 0 0 0 0 0 0 0 0 0
0 0 0 0 0 0 0 0 0 0 0 0 0 0 0 0 0 0 0 0 0 0 0 0 0 0 0 0 0 0 0 0 0 0 0 0 0 0 0 0 0 0 0
0 0 0 0 0 0 0 0 0 0 0 0 0 0 0 0 0 0 0 0 0 0 0 0 0 0 0 0 0 0 0 0 0 0 0 0 0 0 0 0 0 0 0
0 0 0 0 0 0 0 0 0 0 0 0 0 0 0 0 0 0 0 0 0 0 0 0 0 0 0 0 0 0 0 0 0 0 0 0 0 0 0 0 0 0 0
0 0 0 0 0 0 0 0 0 0 0 0 0 0 0 0 0 0 0 0 0 0 0 0 0 0 0 0 0 0 0 0 0 0 0 0 0 0 0 0 0 0 0
0 0 0 0 0 0 0 0 0 0 0 0 0 0 0 0 0 0 0 0 0 0 0 0 0 0 0 0 0 0 0 0 0 0 0 0 0 0 0 0 0 0 0
0 0 0 0 0 0 0 0 0 0 0 0 0 0 0 0 0 0 0 0 0 0 0 0 0 0 0 0 0 0 0 0 0 0 0 0 0 0 0 0 0 0 0
0 0 0 0 0 0 0 0 0 0 0 0 0 0 0 0 0 0 0 0 0 0 0 0 0 0 0 0 0 0 0 0 0 0 0 0 0 0 0 0 0 0 0
0 0 0 0 0 0 0 0 0 0 0 0 0 0 0 0 0 0 0 0 0 0 0 0 0 0 0 0 0 0 0 0 0 0 0 0 0 0 0 0 0 0 0
0 0 0 0 0 0 0 0 0 0 0 0 0 0 0 0 0 0 0 0 0 0 0 0 0 0 0 0 0 0 0 0 0 0 0 0 0 0 0 0 0 0 0
-0 0 0 0 0 0 0 0 0 0 0 0 0 0 0 0 0 0 0 0 0 0 0 0 0 0 0 0 0 0 0 0 0 0 0 0 0 0 0 0 0 0 0
-0 -0 -0 -0 0 0 0 0 0 0 0 0 0 0 0 0 0 0 0 0 0 0 0 0 0 0 0 0 0 0 0 0 0 0 0 0 0 0 0 0 0 0 0
0 -0 -0 -0 -0 0 0 0 0 0 0 0 0 0 0 0 0 0 0 0 0 0 0 0 0 0 0 0 0 0 0 0 0 0 0 0 0 0 0 0 0 0 0
0 0 -0 -0 -0 -0 0 0 0 0 0 0 0 0 0 0 0 0 0 0 0 0 0 0 0 0 0 0 0 0 0 0 0 0 0 0 0 0 0 0 0 0 0
0 0 0 0 0 0 0 0 0 0 0 0 0 0 0 0 0 0 0 0 0 0 0 0 0 0 0 0 0 0 0 0 0 0 0 0 0 0 0 0 0 0 0
0 0 0 0 0 0 0 0 0 0 0 0 0 0 0 0 0 0 0 0 0 0 0 0 0 0 0 0 0 0 0 0 0 0 0 0 0 0 0 0 0 0 0
0 0 0 0 0 0 0 0 0 0 0 0 0 0 0 0 0 0 0 0 0 0 0 0 0 0 0 0 0 0 0 0 0 0 0 0 0 0 0 0 0 0 0
0 0 0 0 0 0 0 0 0 0 0 0 0 0 0 0 0 0 0 0 0 0 0 0 0 0 0 0 0 0 0 0 0 0 0 0 0 0 0 0 0 0 0
0 0 0 0 0 0 0 0 0 0 0 0 0 0 0 0 0 0 0 0 0 0 0 0 0 0 0 0 -0 0 0 0 0 0 0 0 0 0 0 0 0 0 0
0 0 0 0 0 0 0 0 0 0 0 0 0 0 0 0 0 0 0 0 0 0 0 0 0 0 0 0 0 0 0 0 0 0 0 0 0 0 0 0 0 0 0
0 0 0 0 0 0 0 0 0 0 0 0 0 0 0 0 0 0 0 0 0 0 0 0 0 0 0 0 0 0 0 0 0 0 0 0 0 0 0 0 0 0 0
0 0 0 0 0 0 0 0 0 0 0 0 0 0 0 0 0 0 0 0 0 0 0 0 0 0 0 0 0 0 0 0 0 0 0 0 0 0 0 0 0 0 0
0 0 0 0 0 0 0 0 0 0 0 0 0 0 0 0 0 0 0 0 0 0 0 0 0 0 0 0 0 0 0 0 0 0 0 0 0 0 0 0 0 0 0
0 0 0 0 0 0 0 0 0 0 0 0 0 0 0 0 0 0 0 0 0 0 0 0 0 0 0 0 0 0 0 0 0 0 0 0 0 0 0 0 0 0 0
Wind_Speed
2 2 1 2 2 2 2 3 3 4 4 4 4 5 5 4 3 3 3 8 8 8 9 9 10 10 10 10 10 10 10 10 10 10 10 10 9 9 10 10 9 9 9
2 2 2 2 2 2 2 3 4 4 3 4 5 4 4 3 3 3 3 5 8 8 8 9 10 10 10 10 10 10 10 10 10 10 10 10 10 10 10 10 10 10 10
3 3 2 2 2 3 4 3 4 4 4 4 4 4 3 3 3 3 3 2 3 6 7 8 9 10 10 11 11 10 10 10 10 10 11 11 10 10 10 10 9 10 10
4 3 3 2 2 3 3 3 3 4 4 3 3 3 3 3 3 2 2 2 2 2 4 6 8 9 10 10 10 10 10 10 10 10 10 10 10 10 10 10 10 10 11
4 4 3 2 3 3 3 3 3 3 3 3 3 3 3 2 2 2 2 2 2 2 2 4 6 8 9 10 10 10 9 9 9 9 9 9 9 9 10 9 10 10 10
4 4 3 3 4 4 3 3 4 3 3 2 4 4 3 2 2 2 2 2 2 2 2 2 2 4 8 9 8 9 9 8 8 8 9 9 9 9 9 9 9 9 10
4 4 3 3 3 3 3 3 3 4 3 2 3 3 3 3 3 2 2 2 2 2 3 3 3 3 3 7 7 8 8 8 9 8 8 9 9 9 9 9 9 9 9
3 4 4 3 3 3 3 3 3 2 1 2 2 2 2 3 3 3 2 2 2 2 3 3 3 3 3 2 4 8 7 8 8 8 8 8 8 8 8 8 8 8 8
3 3 4 3 3 3 3 2 2 3 2 1 1 3 3 1 1 3 3 3 2 3 2 2 3 3 3 2 2 5 7 7 7 7 7 8 8 7 8 8 8 8 8
2 3 3 4 3 2 3 2 2 2 2 1 1 1 1 3 2 1 2 3 3 3 2 2 3 2 3 2 3 5 6 6 6 6 6 7 7 7 7 6 6 7 7
2 2 3 3 3 2 2 2 2 2 2 2 1 1 1 1 2 3 1 1 2 2 2 2 2 2 2 2 1 3 5 5 6 6 6 6 6 6 6 6 6 6 7
1 2 3 2 3 2 2 2 2 2 2 2 1 1 2 2 1 2 2 1 1 1 2 1 1 1 1 1 2 5 5 5 5 6 6 6 5 5 5 5 5 6 6
1 1 2 2 2 2 2 2 2 2 2 2 2 1 1 1 2 2 3 2 1 1 1 1 1 0 1 1 1 4 4 4 4 4 5 5 5 5 5 5 5 5 5
2 2 2 3 3 3 3 2 2 1 2 2 2 2 1 1 1 2 3 4 2 1 2 1 1 0 0 1 1 2 2 4 4 4 5 5 5 5 5 5 5 5 5
2 3 3 2 2 2 3 3 2 1 2 2 2 2 1 1 1 1 2 3 4 3 1 1 1 1 0 1 1 1 1 3 4 4 5 5 5 6 6 6 6 6 6
2 3 3 3 2 2 3 3 2 2 2 1 1 2 1 1 1 1 1 1 2 4 2 1 1 1 1 2 2 2 2 4 4 5 5 5 5 5 5 5 5 5 5
3 3 3 3 3 2 2 3 2 2 2 2 1 2 1 1 1 1 2 2 2 3 3 1 0 0 1 1 1 1 1 1 1 4 4 3 4 4 4 4 4 4 4
3 3 3 3 3 3 3 3 2 2 3 2 2 2 1 2 2 2 2 2 2 2 4 3 0 1 1 1 2 2 1 1 1 2 3 3 3 3 4 4 4 4 4
3 2 3 3 3 3 3 2 3 2 2 2 2 2 2 3 2 2 2 2 2 2 3 3 1 0 1 1 2 1 1 1 1 1 1 1 2 2 2 3 3 3 3
3 3 3 3 3 3 3 3 3 3 2 2 2 2 3 3 3 3 3 2 3 3 3 3 2 1 1 0 2 1 1 1 1 1 1 1 1 1 1 1 1 1 1
3 3 3 3 3 3 3 4 3 4 3 2 2 2 2 3 4 4 3 3 4 3 3 3 2 1 1 1 1 1 1 0 1 1 1 1 1 1 1 2 2 1 1
3 3 3 3 3 2 4 6 5 4 3 3 2 1 2 2 3 4 5 6 6 5 4 3 2 2 1 1 1 1 2 1 1 1 1 1 0 1 1 1 2 2 2
3 3 3 3 3 3 5 6 6 4 4 2 2 2 2 2 3 2 3 4 3 4 5 5 4 3 3 3 3 2 2 2 2 1 1 1 1 1 2 2 2 2 2
3 3 3 3 3 3 5 5 6 4 3 2 2 3 3 2 2 3 3 2 1 1 2 2 3 3 3 3 3 3 3 2 0 1 1 1 1 2 2 2 3 2 2
3 3 2 3 3 2 4 5 5 3 2 1 1 2 3 3 4 5 4 3 1 1 1 1 2 2 1 2 3 3 2 2 0 1 1 1 1 1 2 2 3 3 3
3 3 2 2 3 3 4 5 6 3 2 1 0 1 3 3 4 6 4 4 3 2 0 1 1 1 1 1 3 3 3 2 1 2 2 2 1 0 2 2 1 2 2
Wind_Direction
107 88 69 61 49 56 72 75 76 77 78 77 87 92 87 79 70 57 56 80 85 89 92 92 90 88 86 85 84 84 82 80 78 76 74 73 74 73 71 70 69 66 62
110 99 77 70 64 68 79 86 86 84 77 79 82 87 87 84 75 69 50 62 75 83 85 89 90 88 86 87 87 85 83 81 78 78 77 75 74 73 69 67 67 65 61
104 98 88 77 70 79 80 79 77 77 79 76 74 78 82 80 81 72 60 46 51 72 81 86 92 90 89 87 87 87 86 83 79 77 75 74 72 70 68 67 68 67 65
101 99 91 83 79 77 80 83 78 78 71 71 71 66 73 79 77 79 65 56 46 42 60 82 89 91 90 86 85 84 84 82 79 79 77 75 73 70 69 67 67 66 63
100 100 94 88 85 78 73 88 76 89 86 77 80 69 60 69 69 86 69 57 64 64 46 67 81 86 89 86 83 81 81 82 82 82 80 78 76 74 71 68 67 64 61
100 99 95 88 86 82 72 78 82 70 80 82 79 64 47 50 52 64 76 61 74 80 78 68 65 72 80 84 83 82 79 79 82 82 81 80 76 74 72 70 68 64 62
107 104 101 92 88 91 93 94 97 82 64 75 78 55 29 30 42 33 49 68 77 78 77 78 74 64 62 63 71 79 79 78 78 78 78 79 78 74 71 70 67 63 62
117 121 116 113 105 103 92 89 97 97 57 60 99 91 41 11 9 22 30 64 75 75 80 88 84 79 70 56 60 71 72 75 74 71 73 80 79 75 74 71 67 63 63
116 122 127 123 121 119 123 121 119 120 113 40 82 129 132 181 330 1 14 39 58 73 78 84 86 81 81 70 60 62 70 70 71 71 73 81 81 79 76 68 62 59 60
120 130 132 132 133 129 134 145 129 126 125 115 46 62 137 152 140 79 1 16 39 58 70 86 86 86 84 79 72 73 72 66 66 68 76 82 80 79 77 70 64 60 61
115 134 139 138 141 143 149 140 127 125 130 141 141 122 87 74 96 128 119 1 24 22 48 79 93 91 89 85 84 80 78 72 67 66 71 79 77 74 75 72 67 64 61
73 113 140 147 150 150 158 156 147 134 128 123 125 126 139 133 144 129 141 146 87 2 25 42 70 89 94 87 98 95 88 81 73 66 65 69 69 70 69 65 63 60 57
145 160 141 147 150 156 158 148 137 135 135 127 141 146 140 159 152 140 131 136 114 4 20 25 19 87 115 100 93 100 94 90 82 72 68 69 64 64 66 61 56 55 54
182 170 152 150 151 150 144 132 125 146 132 134 139 147 131 145 144 149 147 140 119 51 25 333 343 4 136 127 127 116 97 99 87 77 72 68 63 63 63 56 50 50 51
172 156 151 148 149 142 138 130 131 144 133 139 144 140 136 151 130 132 148 151 146 150 208 289 309 306 155 140 138 120 106 93 89 82 77 71 68 68 63 59 52 48 48
159 149 153 151 149 145 139 126 129 135 125 131 137 119 107 101 93 101 132 133 140 145 161 233 240 227 146 131 133 120 105 99 94 92 84 75 72 67 62 60 54 49 47
158 161 163 157 158 154 146 134 137 138 135 123 110 115 106 102 94 81 89 96 104 123 138 212 340 79 104 109 96 98 116 100 90 96 94 81 72 66 62 62 58 48 43
160 163 154 152 161 158 154 147 151 141 141 139 134 119 119 110 99 87 94 96 104 117 134 146 127 69 107 136 119 115 109 116 110 92 98 90 79 70 63 64 61 57 54
153 156 152 152 156 152 149 148 143 140 146 154 151 144 145 123 118 106 103 100 94 97 105 130 139 68 69 91 88 81 83 49 81 88 99 91 82 75 69 65 58 56 55
146 146 150 153 153 145 138 136 131 128 129 129 136 148 149 148 155 141 124 120 109 98 99 110 111 86 81 77 98 113 56 13 13 28 38 63 63 54 30 31 35 37 46
140 138 134 136 136 137 141 140 138 132 127 114 109 129 143 145 145 140 134 138 125 114 109 110 114 93 77 111 178 182 147 6 341 356 18 3 14 353 328 307 302 306 319
131 128 134 140 142 148 144 144 140 134 126 123 127 142 130 125 127 126 124 130 137 138 145 139 138 147 197 195 175 155 142 109 294 293 112 321 54 282 285 284 314 308 307
141 133 139 140 148 156 145 141 141 133 134 139 144 140 133 126 122 122 114 112 117 129 148 155 157 184 194 204 180 173 175 169 210 231 126 285 320 283 281 301 305 301 308
156 157 159 160 156 162 148 147 149 134 133 147 160 170 162 163 151 145 130 112 101 115 160 158 174 194 196 197 186 185 181 158 12 341 130 204 274 268 291 285 297 290 304
157 163 160 158 155 167 156 150 144 129 129 153 172 166 167 173 173 153 137 138 123 315 353 162 176 177 172 165 146 113 109 116 241 273 194 166 249 281 291 287 293 299 297
167 160 156 166 166 176 171 158 152 140 140 159 166 182 176 171 168 161 156 157 174 229 194 58 61 54 59 108 136 151 163 156 173 251 236 164 209 146 304 290 294 302 297